• In Deutschland
  • Länderverzeichnis
  • Für 7 Tage
  • Wassertemperatur
  • Satellitenkarten
  • Wetterkarte
  • Widgets
  • user-avatar
    Anmelden

    Stündliche Wetter Shkoder

    Heute, 29 April, Samstag

    Zeit Temperatur Niederschläge Wind Luftdruck Luftfeuchtigkeit
    00:00 +14°C° 0 mm 2 m/S 737 mmHg 56%
    01:00 +14°C° 0 mm 1 m/S 737 mmHg 53%
    02:00 +14°C° 0 mm 1 m/S 737 mmHg 55%
    03:00 +14°C° 0 mm 1 m/S 736 mmHg 57%
    04:00 +13°C° 0 mm 1 m/S 736 mmHg 59%
    05:00 +15°C° 0 mm 1 m/S 736 mmHg 58%
    06:00 +18°C° 0 mm 1 m/S 736 mmHg 56%
    07:00 +20°C° 0 mm 1 m/S 736 mmHg 55%
    08:00 +19°C° 0,1 mm 2 m/S 736 mmHg 51%
    09:00 +20°C° 0,1 mm 2 m/S 736 mmHg 47%
    10:00 +21°C° 0,1 mm 2 m/S 736 mmHg 44%
    11:00 +21°C° 0,1 mm 2 m/S 736 mmHg 44%
    12:00 +21°C° 0,1 mm 2 m/S 736 mmHg 45%
    13:00 +21°C° 0,1 mm 3 m/S 736 mmHg 46%
    14:00 +21°C° 0 mm 2 m/S 736 mmHg 48%
    15:00 +21°C° 0 mm 2 m/S 736 mmHg 49%
    16:00 +20°C° 0 mm 2 m/S 736 mmHg 51%
    17:00 +19°C° 0 mm 2 m/S 736 mmHg 59%
    18:00 +18°C° 0 mm 1 m/S 736 mmHg 67%
    19:00 +15°C° 0 mm 1 m/S 736 mmHg 75%
    20:00 +15°C° 0 mm 1 m/S 737 mmHg 74%
    21:00 +15°C° 0 mm 1 m/S 737 mmHg 73%
    22:00 +15°C° 0 mm 2 m/S 737 mmHg 72%
    23:00 +14°C° 0 mm 2 m/S 737 mmHg 74%

    Morgen, 30 April, Sonntag

    Zeit Temperatur Niederschläge Wind Luftdruck Luftfeuchtigkeit
    00:00 +14°C° 0 mm 2 m/S 737 mmHg 76%
    01:00 +13°C° 0 mm 3 m/S 737 mmHg 78%
    02:00 +12°C° 0 mm 3 m/S 737 mmHg 80%
    03:00 +12°C° 0 mm 3 m/S 737 mmHg 82%
    04:00 +12°C° 0 mm 3 m/S 737 mmHg 84%
    05:00 +13°C° 0 mm 3 m/S 737 mmHg 80%
    06:00 +13°C° 0 mm 3 m/S 737 mmHg 77%
    07:00 +14°C° 0 mm 3 m/S 737 mmHg 74%
    08:00 +17°C° 0 mm 3 m/S 737 mmHg 67%
    09:00 +19°C° 0 mm 3 m/S 737 mmHg 60%
    10:00 +21°C° 0 mm 2 m/S 737 mmHg 54%
    11:00 +22°C° 0,1 mm 3 m/S 737 mmHg 51%
    12:00 +24°C° 0,1 mm 3 m/S 737 mmHg 48%
    13:00 +25°C° 0,1 mm 3 m/S 736 mmHg 46%
    14:00 +24°C° 0,2 mm 3 m/S 736 mmHg 48%
    15:00 +24°C° 0,2 mm 3 m/S 736 mmHg 51%
    16:00 +22°C° 0,2 mm 3 m/S 736 mmHg 54%
    17:00 +20°C° 0,1 mm 3 m/S 736 mmHg 64%
    18:00 +18°C° 0,1 mm 2 m/S 736 mmHg 74%
    19:00 +16°C° 0,1 mm 2 m/S 736 mmHg 84%
    20:00 +15°C° 0,1 mm 2 m/S 736 mmHg 84%
    21:00 +15°C° 0,1 mm 2 m/S 737 mmHg 84%
    22:00 +15°C° 0,1 mm 2 m/S 737 mmHg 85%
    23:00 +14°C° 0,1 mm 2 m/S 737 mmHg 85%

    übermorgen, 1 Mai, Montag

    Zeit Temperatur Niederschläge Wind Luftdruck Luftfeuchtigkeit
    00:00 +14°C° 0,1 mm 2 m/S 737 mmHg 85%
    01:00 +14°C° 0,1 mm 2 m/S 737 mmHg 86%
    02:00 +13°C° 0,1 mm 1 m/S 737 mmHg 86%
    03:00 +13°C° 0,1 mm 1 m/S 737 mmHg 86%
    04:00 +13°C° 0,1 mm 1 m/S 737 mmHg 87%
    05:00 +15°C° 0 mm 1 m/S 737 mmHg 82%
    06:00 +16°C° 0 mm 1 m/S 737 mmHg 77%
    07:00 +19°C° 0 mm 1 m/S 737 mmHg 72%
    08:00 +20°C° 0 mm 1 m/S 737 mmHg 67%
    09:00 +22°C° 0 mm 1 m/S 737 mmHg 61%
    10:00 +24°C° 0 mm 2 m/S 737 mmHg 55%
    11:00 +24°C° 0,4 mm 2 m/S 737 mmHg 57%
    12:00 +24°C° 0,4 mm 2 m/S 737 mmHg 58%
    13:00 +24°C° 0,4 mm 2 m/S 737 mmHg 60%
    14:00 +24°C° 0,4 mm 2 m/S 737 mmHg 61%
    15:00 +23°C° 0,4 mm 2 m/S 737 mmHg 63%
    16:00 +23°C° 0,4 mm 2 m/S 737 mmHg 65%
    17:00 +20°C° 0,1 mm 2 m/S 737 mmHg 73%
    18:00 +18°C° 0,1 mm 1 m/S 737 mmHg 82%
    19:00 +15°C° 0,1 mm 1 m/S 737 mmHg 91%
    20:00 +14°C° 0 mm 1 m/S 737 mmHg 92%
    21:00 +14°C° 0 mm 1 m/S 738 mmHg 92%
    22:00 +12°C° 0 mm 0 m/S 738 mmHg 93%
    23:00 +12°C° 0 mm 0 m/S 738 mmHg 93%

    2 Mai, Dienstag

    Zeit Temperatur Niederschläge Wind Luftdruck Luftfeuchtigkeit
    00:00 +12°C° 0 mm 0 m/S 738 mmHg 93%
    01:00 +11°C° 0 mm 0 m/S 738 mmHg 92%
    02:00 +11°C° 0 mm 0 m/S 738 mmHg 92%
    03:00 +10°C° 0 mm 0 m/S 738 mmHg 92%
    04:00 +10°C° 0 mm 0 m/S 738 mmHg 92%
    05:00 +13°C° 0 mm 0 m/S 738 mmHg 85%
    06:00 +15°C° 0 mm 0 m/S 738 mmHg 78%
    07:00 +18°C° 0 mm 0 m/S 738 mmHg 72%
    08:00 +21°C° 0 mm 1 m/S 739 mmHg 65%
    09:00 +23°C° 0 mm 1 m/S 739 mmHg 58%
    10:00 +24°C° 0 mm 2 m/S 739 mmHg 52%
    11:00 +25°C° 0 mm 2 m/S 739 mmHg 50%
    12:00 +25°C° 0 mm 2 m/S 739 mmHg 47%
    13:00 +25°C° 0 mm 3 m/S 738 mmHg 45%
    14:00 +25°C° 0 mm 3 m/S 738 mmHg 46%
    15:00 +24°C° 0 mm 3 m/S 738 mmHg 48%
    16:00 +24°C° 0 mm 3 m/S 738 mmHg 49%
    17:00 +20°C° 0 mm 2 m/S 738 mmHg 61%
    18:00 +17°C° 0 mm 2 m/S 739 mmHg 72%
    19:00 +14°C° 0 mm 1 m/S 739 mmHg 84%
    20:00 +13°C° 0 mm 1 m/S 739 mmHg 84%
    21:00 +13°C° 0 mm 1 m/S 739 mmHg 84%
    22:00 +12°C° 0 mm 1 m/S 739 mmHg 84%
    23:00 +12°C° 0 mm 1 m/S 739 mmHg 84%

    3 Mai, Mittwoch

    Zeit Temperatur Niederschläge Wind Luftdruck Luftfeuchtigkeit
    00:00 +10°C° 0 mm 0 m/S 739 mmHg 84%
    01:00 +10°C° 0 mm 0 m/S 739 mmHg 84%
    02:00 +10°C° 0 mm 0 m/S 739 mmHg 84%
    03:00 +10°C° 0 mm 0 m/S 739 mmHg 83%
    04:00 +9°C° 0 mm 0 m/S 739 mmHg 83%
    05:00 +12°C° 0 mm 0 m/S 739 mmHg 72%
    06:00 +15°C° 0 mm 0 m/S 739 mmHg 61%
    07:00 +18°C° 0 mm 0 m/S 739 mmHg 51%
    08:00 +22°C° 0 mm 1 m/S 739 mmHg 47%
    09:00 +23°C° 0 mm 1 m/S 739 mmHg 44%
    10:00 +25°C° 0 mm 2 m/S 739 mmHg 41%
    11:00 +25°C° 0 mm 2 m/S 739 mmHg 41%
    12:00 +25°C° 0 mm 2 m/S 739 mmHg 40%
    13:00 +26°C° 0 mm 3 m/S 739 mmHg 40%
    14:00 +25°C° 0 mm 3 m/S 738 mmHg 42%
    15:00 +25°C° 0 mm 3 m/S 738 mmHg 44%
    16:00 +24°C° 0 mm 2 m/S 738 mmHg 46%
    17:00 +20°C° 0 mm 2 m/S 738 mmHg 59%
    18:00 +18°C° 0 mm 1 m/S 738 mmHg 72%
    19:00 +14°C° 0 mm 1 m/S 738 mmHg 84%
    20:00 +13°C° 0 mm 1 m/S 738 mmHg 85%
    21:00 +13°C° 0 mm 1 m/S 738 mmHg 86%
    22:00 +11°C° 0 mm 0 m/S 739 mmHg 86%
    23:00 +11°C° 0 mm 0 m/S 738 mmHg 85%

    4 Mai, Donnerstag

    Zeit Temperatur Niederschläge Wind Luftdruck Luftfeuchtigkeit
    00:00 +11°C° 0 mm 0 m/S 738 mmHg 84%
    01:00 +10°C° 0 mm 0 m/S 738 mmHg 84%
    02:00 +10°C° 0 mm 0 m/S 738 mmHg 83%
    03:00 +10°C° 0 mm 0 m/S 738 mmHg 83%
    04:00 +9°C° 0 mm 0 m/S 738 mmHg 82%
    05:00 +12°C° 0 mm 0 m/S 738 mmHg 72%
    06:00 +15°C° 0 mm 0 m/S 738 mmHg 62%
    07:00 +18°C° 0 mm 0 m/S 738 mmHg 51%
    08:00 +20°C° 0 mm 0 m/S 738 mmHg 47%
    09:00 +23°C° 0 mm 1 m/S 738 mmHg 44%
    10:00 +25°C° 0 mm 1 m/S 738 mmHg 40%
    11:00 +25°C° 0 mm 2 m/S 738 mmHg 39%
    12:00 +25°C° 0 mm 2 m/S 738 mmHg 39%
    13:00 +26°C° 0 mm 3 m/S 737 mmHg 38%
    14:00 +25°C° 0 mm 3 m/S 737 mmHg 41%
    15:00 +24°C° 0 mm 2 m/S 737 mmHg 43%
    16:00 +24°C° 0 mm 2 m/S 737 mmHg 45%
    17:00 +20°C° 0 mm 2 m/S 737 mmHg 57%
    18:00 +18°C° 0 mm 1 m/S 737 mmHg 69%
    19:00 +14°C° 0 mm 1 m/S 737 mmHg 81%
    20:00 +13°C° 0 mm 1 m/S 737 mmHg 81%
    21:00 +13°C° 0 mm 1 m/S 737 mmHg 81%
    22:00 +12°C° 0 mm 1 m/S 738 mmHg 81%
    23:00 +12°C° 0 mm 1 m/S 738 mmHg 80%
    Mehr zeigen